Weather History for Oakland, CA

Change the Weather History Date:

Thursday, June 27, 2013

  Actual Average Record
Temperature  
Mean Temperature 70 °F 63 °F  
Max Temperature 80 °F 71 °F 94 °F (2003)
Min Temperature 59 °F 55 °F 49 °F (1949)
Degree Days  
Heating Degree Days 0 3  
Month to date heating degree days 60 97  
Since 1 June heating degree days 60 97  
Since 1 July heating degree days 2431 2867  
Cooling Degree Days 5 1  
Month to date cooling degree days 17 16  
Year to date cooling degree days 58 32  
Since 1 June cooling degree days 17 16  
Growing Degree Days 20 (Base 50)    
Moisture  
Dew Point 62 °F    
Average Humidity 77    
Maximum Humidity 100    
Minimum Humidity 54    
Precipitation  
Precipitation 0.00 in 0.01 in 0.02 in (1952)
Month to date precipitation 0.17 0.18  
Year to date precipitation 2.82 13.22  
Since 1 July precipitation 13.81 20.81  
Sea Level Pressure  
Sea Level Pressure 30.06 in    
Wind  
Wind Speed 6 mph (West)    
Max Wind Speed 15 mph    
Max Gust Speed 18 mph    
Visibility 10 miles    
Events      
T = Trace of Precipitation, MM = Missing Value Source: NWS Daily Summary

Daily Weather History Graph

Daily Weather History Graph

Search for Another Location

Airport:

Trip Planner

Search our weather history database for the weather conditions in past years. The results will help you decide how hot, cold, wet, or windy it might be!

Date:

Astronomy

Jun. 27, 2013 Rise Set
Actual Time 5:49 AM PDT 8:34 PM PDT
Civil Twilight 5:18 AM PDT 9:05 PM PDT
Nautical Twilight 4:38 AM PDT 9:45 PM PDT
Astronomical Twilight 3:54 AM PDT 10:29 PM PDT
Moon 11:41 PM PDT (6/27) 10:50 AM PDT (6/27)
Length of Visible Light 15h 47m
Length of Day
14h 45m
Waning Gibbous, 75% of the Moon is Illuminated
Jun 27
Waning Gibbous
Jun 29
Last Quarter
Jul 8
New
Jul 15
First Quarter
Jul 22
Full

Hourly Weather History & Observations

Time (PDT) Temp. Dew Point Humidity Pressure Visibility Wind Dir Wind Speed Gust Speed Precip Events Conditions
12:53 AM 62.1 °F 62.1 °F 100% 30.06 in 10.0 mi WSW 8.1 mph - N/A   Partly Cloudy
1:38 AM 62.6 °F 62.6 °F 100% 30.06 in 10.0 mi WSW 4.6 mph - N/A   Mostly Cloudy
1:53 AM 60.1 °F 57.9 °F 93% 30.06 in 10.0 mi Calm Calm - N/A   Mostly Cloudy
2:53 AM 61.0 °F 59.0 °F 93% 30.06 in 10.0 mi Calm Calm - N/A   Overcast
3:53 AM 62.1 °F 60.1 °F 93% 30.05 in 10.0 mi SSE 3.5 mph - N/A   Overcast
4:30 AM 62.6 °F 60.8 °F 94% 30.05 in 10.0 mi Calm Calm - N/A   Overcast
4:53 AM 62.1 °F 59.0 °F 90% 30.06 in 10.0 mi Calm Calm - N/A   Overcast
5:53 AM 61.0 °F 59.0 °F 93% 30.06 in 7.0 mi Calm Calm - N/A   Overcast
6:04 AM 60.8 °F 59.0 °F 94% 30.06 in 7.0 mi Calm Calm - N/A   Scattered Clouds
6:53 AM 62.1 °F 60.1 °F 93% 30.06 in 7.0 mi Calm Calm - N/A   Scattered Clouds
7:53 AM 66.0 °F 66.0 °F 100% 30.08 in 10.0 mi Calm Calm - N/A   Partly Cloudy
8:53 AM 66.9 °F 66.0 °F 97% 30.09 in 10.0 mi WSW 4.6 mph - N/A   Clear
9:53 AM 66.9 °F 66.9 °F 100% 30.08 in 10.0 mi West 6.9 mph - N/A   Clear
10:53 AM 75.0 °F 64.9 °F 71% 30.09 in 10.0 mi NW 8.1 mph - N/A   Clear
11:53 AM 75.9 °F 62.1 °F 62% 30.09 in 10.0 mi WNW 12.7 mph - N/A   Clear
12:53 PM 75.0 °F 61.0 °F 62% 30.08 in 10.0 mi WNW 10.4 mph - N/A   Clear
1:53 PM 79.0 °F 61.0 °F 54% 30.07 in 10.0 mi WNW 12.7 mph - N/A   Clear
2:53 PM 79.0 °F 61.0 °F 54% 30.06 in 10.0 mi WNW 12.7 mph - N/A   Clear
3:53 PM 78.1 °F 61.0 °F 56% 30.06 in 10.0 mi NW 11.5 mph - N/A   Clear
4:53 PM 78.1 °F 61.0 °F 56% 30.04 in 10.0 mi NW 9.2 mph - N/A   Partly Cloudy
5:53 PM 77.0 °F 60.1 °F 56% 30.04 in 10.0 mi West 9.2 mph - N/A   Partly Cloudy
6:53 PM 73.9 °F 61.0 °F 64% 30.02 in 10.0 mi WNW 12.7 mph - N/A   Partly Cloudy
7:53 PM 71.1 °F 62.1 °F 73% 30.03 in 10.0 mi West 12.7 mph - N/A   Partly Cloudy
8:53 PM 69.1 °F 63.0 °F 81% 30.04 in 10.0 mi West 9.2 mph - N/A   Partly Cloudy
9:53 PM 66.0 °F 64.0 °F 93% 30.05 in 10.0 mi WNW 6.9 mph - N/A   Partly Cloudy
10:53 PM 64.9 °F 63.0 °F 93% 30.05 in 10.0 mi WNW 5.8 mph - N/A   Partly Cloudy
11:53 PM 64.9 °F 63.0 °F 93% 30.05 in 10.0 mi West 5.8 mph - N/A   Partly Cloudy